Station NWHC3 - 8465705 - New Haven, CT Image indicating link to RSS feed of recent meteorological observations for station NWHC3


Conditions at NWHC3 as of
(1:00 pm EDT)
1700 GMT on 05/20/2024:
     

Click on the graph icon in the table below to see a time series plot of the last five days of that observation.

5-day plot - Wind Direction Wind Direction (WDIR):SSW ( 210 deg true )
5-day plot - Wind Speed Wind Speed (WSPD):5.7 m/s
5-day plot - Wind Gust Wind Gust (GST):6.2 m/s
5-day plot - Atmospheric Pressure Atmospheric Pressure (PRES):1017.5 mb
5-day plot - Pressure Tendency Pressure Tendency (PTDY): -0.6 mb ( Falling )
5-day plot - Air Temperature Air Temperature (ATMP): 14.8 °C
5-day plot - Water Temperature Water Temperature (WTMP): 13.8 °C
5-day plot - Wind Speed at 10 Meters Wind Speed at 10 meters (WSPD10M): 6 m/s
5-day plot - Wind Speed at 20 Meters Wind Speed at 20 meters (WSPD20M): 7 m/s
5-day plot -  Wind Speed, Wind Gust and Atmospheric Pressure Combined plot of Wind Speed, Gust, and Air Pressure
NOS Water Level Observation Network Water Level
Previous observations
TIME
(EDT)
5-day plot - Wind Direction
WDIR
 
5-day plot - Wind Speed
WSPD
m/s
5-day plot - Wind Gust
GST
m/s
5-day plot - Wave Height
WVHT
m
5-day plot - Dominant Wave Period
DPD
sec
5-day plot - Average Wave Period
APD
sec
5-day plot - Mean Wave Direction
MWD
 
5-day plot - Atmospheric Pressure
PRES
mb
5-day plot - Pressure Tendency
PTDY
mb
5-day plot - Air Temperature
ATMP
°C
5-day plot - Water Temperature
WTMP
°C
5-day plot - Dew Point
DEWP
°C
5-day plot - Salinity
SAL
psu
5-day plot - Visibility
VIS
km
5-day plot - Tide (above MLLW)
TIDE
m
2024-05-20 12:54 pmSSW 5.7 6.2----1017.6- 14.9 13.8----
2024-05-20 12:48 pmSSW 5.7 5.7----1017.7- 14.8 13.8----
2024-05-20 12:42 pmSSW 5.7 6.2----1017.7- 14.7 13.8----
2024-05-20 12:36 pmSSW 5.1 6.2----1017.8- 14.8 13.8----
2024-05-20 12:30 pmSSW 5.1 6.2----1017.9- 14.9 13.8----
2024-05-20 12:24 pmSSW 5.1 5.7----1017.9- 14.8 13.8----
2024-05-20 12:18 pmSSW 5.1 5.7----1017.9- 14.8 13.8----
2024-05-20 12:12 pmSSW 5.1 6.2----1018.0- 14.8 13.8----
2024-05-20 12:06 pmSSW 6.2 6.2----1018.1- 14.8 13.8----
2024-05-20 12:00 pmSSW 5.1 5.7----1018.2 +0.0 14.8 13.7----
2024-05-20 11:54 amSSW 5.1 5.7----1018.2- 14.8 13.7----
2024-05-20 11:48 am SW 5.7 6.2----1018.1- 14.7 13.7----
2024-05-20 11:42 amSSW 5.1 5.7----1018.1- 15.0 13.7----
2024-05-20 11:36 amSSW 4.6 4.6----1018.1- 15.3 13.7----
2024-05-20 11:30 am SW 4.6 5.7----1018.1- 15.3 13.7----
2024-05-20 11:24 amSSW 3.6 4.6----1018.0- 15.7 13.7----
2024-05-20 11:18 am- 0.0 1.0----1018.0- 17.5 13.7----
2024-05-20 11:12 am N 1.0 2.1----1018.1- 17.0 13.7----
2024-05-20 11:06 amWNW 1.0 2.1----1018.1- 16.4 13.8----
2024-05-20 11:00 am NW 2.1 2.6----1018.1 +0.0 16.1 13.8----
2024-05-20 10:54 am NW 2.1 2.6----1018.0- 16.0 13.8----
2024-05-20 10:48 am NW 1.0 2.1----1017.9- 16.2 13.8----
2024-05-20 10:42 am- 0.0 2.6----1017.8- 16.3 13.8----
2024-05-20 10:36 am E 2.1 2.6----1017.8- 16.3 13.8----
2024-05-20 10:30 am NE 0.5 3.6----1017.9- 15.9 13.8----
2024-05-20 10:24 amNNE 2.1 2.6----1017.9- 15.4 13.8----
2024-05-20 10:18 am NE 2.1 2.6----1018.0- 15.4 13.9----
2024-05-20 10:12 am N 2.6 3.1----1018.1- 15.1 13.9----
2024-05-20 10:06 amNNE 2.6 3.6----1018.1- 15.1 13.9----
2024-05-20 10:00 amENE 2.6 3.6----1018.1 +0.6 15.1 14.0----
2024-05-20 09:54 am N 2.1 3.1----1018.1- 14.8 14.0----
2024-05-20 09:48 am N 2.6 2.6----1018.1- 14.7 14.0----
2024-05-20 09:42 amNNE 2.6 3.6----1018.1- 14.6 14.0----
2024-05-20 09:36 am N 4.1 4.6----1018.2- 14.5 14.0----
2024-05-20 09:30 am N 2.1 3.1----1018.2- 14.4 14.0----
2024-05-20 09:24 am N 3.1 3.6----1018.4- 14.2 14.1----
2024-05-20 09:18 amNNE 2.6 4.1----1018.3- 14.3 14.1----
2024-05-20 09:12 am N 2.1 3.1----1018.3- 14.2 14.1----
2024-05-20 09:06 am N 3.1 3.6----1018.3- 14.1 14.1----
2024-05-20 09:00 am N 2.6 5.1----1018.4 +1.1 14.0 14.1----
2024-05-20 08:54 amNNE 4.6 5.1----1018.5- 13.9 14.2----
2024-05-20 08:48 am N 4.6 5.1----1018.5- 13.9 14.2----
2024-05-20 08:42 amNNE 4.1 5.1----1018.4- 14.0 14.3----
2024-05-20 08:36 amNNE 4.1 4.6----1018.3- 13.9 14.3----
2024-05-20 08:30 am NE 3.1 4.6----1018.2- 13.9 14.3----
2024-05-20 08:24 am NE 4.1 5.7----1018.1- 13.9 14.3----
2024-05-20 08:18 amNNE 4.1 5.1----1018.0- 13.8 14.3----
2024-05-20 08:12 amNNE 3.6 5.1----1018.1- 13.7 14.3----
2024-05-20 08:06 amNNE 2.6 4.1----1018.2- 13.7 14.3----
2024-05-20 08:00 amNNE 3.6 4.6----1018.3 +1.1 13.5 14.3----
2024-05-20 07:54 amNNE 3.1 4.6----1018.3- 13.5 14.3----
2024-05-20 07:48 am NE 3.6 5.1----1018.1- 13.5 14.3----
2024-05-20 07:42 am NE 3.1 4.6----1018.1- 13.4 14.3----
2024-05-20 07:36 amNNE 4.1 5.1----1018.0- 13.3 14.3----
2024-05-20 07:30 amNNE 4.1 5.7----1018.0- 13.2 14.3----
2024-05-20 07:24 amNNE 3.1 4.1----1018.0- 13.3 14.3----
2024-05-20 07:18 am NE 3.1 5.1----1017.9- 13.3 14.4----
2024-05-20 07:12 am NE 3.6 5.1----1017.8- 13.2 14.4----
2024-05-20 07:06 am NE 3.6 4.6----1017.7- 13.2 14.4----
2024-05-20 07:00 amENE 3.6 4.6----1017.5 +0.0 13.1 14.4----
2024-05-20 06:54 am NE 3.1 4.1----1017.4- 13.1 14.4----
2024-05-20 06:48 amENE 3.1 4.6----1017.4- 13.0 14.4----
2024-05-20 06:42 amENE 3.1 4.6----1017.4- 13.0 14.4----
2024-05-20 06:36 amENE 2.6 4.6----1017.4- 13.0 14.4----
2024-05-20 06:30 am NE 3.1 4.6----1017.3- 12.8 14.4----
2024-05-20 06:24 am NE 3.1 4.1----1017.3- 12.7 14.3----
2024-05-20 06:18 am NE 3.1 4.1----1017.4- 12.8 14.3----
2024-05-20 06:12 amENE 2.6 4.1----1017.4- 12.6 14.3----
2024-05-20 06:06 am NE 3.1 4.1----1017.3- 12.6 14.3----
2024-05-20 06:00 am NE 3.1 4.1----1017.3 +0.0 12.4 14.3----
2024-05-20 05:54 am NE 2.6 3.6----1017.4- 12.4 14.3----
2024-05-20 05:48 am NE 3.1 3.6----1017.4- 12.4 14.3----
2024-05-20 05:42 am NE 3.1 3.6----1017.3- 12.3 14.3----
2024-05-20 05:36 am NE 2.1 2.6----1017.4- 12.3 14.3----
2024-05-20 05:30 am NE 2.6 4.1----1017.3- 12.3 14.3----
2024-05-20 05:24 am NE 2.6 3.6----1017.3- 12.2 14.3----
2024-05-20 05:18 am NE 2.6 3.6----1017.3- 12.2 14.3----
2024-05-20 05:12 am NE 2.6 3.6----1017.2- 12.3 14.3----
2024-05-20 05:06 am NE 2.6 3.1----1017.2- 12.4 14.3----
2024-05-20 05:00 amNNE 2.6 3.6----1017.2 +0.0 12.4 14.3----
2024-05-20 04:54 amNNE 3.1 3.6----1017.2- 12.4 14.3----
2024-05-20 04:48 am NE 2.1 2.6----1017.3- 12.4 14.3----
2024-05-20 04:42 am NE 2.1 2.6----1017.2- 12.4 14.4----
2024-05-20 04:36 amENE 2.6 3.1----1017.2- 12.4 14.4----
2024-05-20 04:30 am NE 2.1 3.1----1017.2- 12.4 14.5----
2024-05-20 04:24 amENE 2.1 3.1----1017.3- 12.4 14.4----
2024-05-20 04:18 amENE 2.6 3.1----1017.3- 12.4 14.4----
2024-05-20 04:12 amENE 2.6 3.1----1017.3- 12.4 14.4----
2024-05-20 04:06 amENE 2.6 3.1----1017.3- 12.4 14.3----
2024-05-20 04:00 amENE 2.6 3.1----1017.3 -0.3 12.5 14.3----
2024-05-20 03:54 amENE 2.6 3.1----1017.3- 12.5 14.3----
2024-05-20 03:48 am NE 2.6 3.1----1017.2- 12.6 14.3----
2024-05-20 03:42 am NE 2.6 3.6----1017.3- 12.7 14.2----
2024-05-20 03:36 amENE 3.1 3.1----1017.2- 12.7 14.2----
2024-05-20 03:30 am NE 3.1 3.6----1017.2- 12.8 14.2----
2024-05-20 03:24 am NE 2.6 3.6----1017.1- 12.9 14.2----
2024-05-20 03:18 am NE 3.1 3.6----1017.2- 13.0 14.2----
2024-05-20 03:12 am NE 3.6 4.1----1017.2- 13.1 14.2----
2024-05-20 03:06 am NE 2.6 3.1----1017.2- 13.0 14.2----
2024-05-20 03:00 am NE 2.6 3.1----1017.2 +0.0 13.1 14.2----
2024-05-20 02:54 amENE 2.6 3.6----1017.2- 13.2 14.2----
2024-05-20 02:48 am NE 2.1 2.6----1017.3- 13.3 14.2----
2024-05-20 02:42 am NE 2.1 2.6----1017.2- 13.4 14.1----
2024-05-20 02:36 amENE 2.1 2.6----1017.2- 13.5 14.1----
2024-05-20 02:30 am NE 2.1 3.1----1017.1- 13.6 14.0----
2024-05-20 02:24 amNNE 2.1 2.6----1017.2- 13.7 14.0----
2024-05-20 02:18 am NE 2.1 2.1----1017.2- 13.7 13.9----
2024-05-20 02:12 am NE 1.5 2.1----1017.2- 13.7 13.9----
2024-05-20 02:06 am NE 1.5 2.1----1017.3- 13.7 13.9----
2024-05-20 02:00 am NE 1.5 1.5----1017.3 +0.0 13.7 13.9----
2024-05-20 01:54 am NE 1.0 1.5----1017.3- 13.7 13.9----
2024-05-20 01:48 am E 1.0 1.5----1017.2- 13.9 13.8----
2024-05-20 01:42 am NE 1.5 1.5----1017.2- 14.0 13.8----
2024-05-20 01:36 am NE 1.5 1.5----1017.3- 14.1 13.8----
2024-05-20 01:30 amNNE 1.5 2.1----1017.5- 14.2 13.7----
2024-05-20 01:24 am NE 1.5 2.1----1017.5- 14.2 13.7----
2024-05-20 01:18 am-------1017.6-- 13.7----
2024-05-20 01:12 am-------1017.6-- 13.7----
2024-05-20 01:06 am-------1017.6-- 13.7----
2024-05-20 01:00 am NE 2.1 2.6----1017.6 +0.0 14.5 13.7----
2024-05-20 12:54 am NE 1.0 2.6----1017.5- 14.6 13.7----
2024-05-20 12:48 am NE 2.1 3.6----1017.5- 14.8 13.6----
2024-05-20 12:42 am NE 1.5 2.1----1017.5- 14.8 13.6----
2024-05-20 12:36 am NE 1.0 2.1----1017.5- 14.8 13.6----
2024-05-20 12:30 am NE 1.5 1.5----1017.6- 14.8 13.6----
2024-05-20 12:24 am NE 1.5 2.1----1017.6- 14.9 13.6----
2024-05-20 12:18 am NE 2.1 2.6----1017.6- 14.9 13.6----
2024-05-20 12:12 am NE 1.0 2.6----1017.6- 15.0 13.6----
2024-05-20 12:06 amENE 2.1 3.1----1017.5- 15.1 13.6----
2024-05-20 12:00 am NE 2.6 2.6----1017.4 +0.6 15.1 13.6----
2024-05-19 11:54 pmENE 2.1 4.1----1017.4- 15.2 13.6----
2024-05-19 11:48 pmENE 2.1 3.6----1017.4- 15.3 13.6----
2024-05-19 11:42 pmENE 2.1 3.1----1017.4- 15.5 13.6----
2024-05-19 11:36 pm NE 2.6 3.1----1017.4- 15.5 13.7----
2024-05-19 11:30 pm NE 3.1 4.1----1017.5- 15.6 13.7----
2024-05-19 11:24 pm NE 3.1 4.1----1017.5- 15.6 13.7----
2024-05-19 11:18 pm NE 3.1 4.1----1017.4-- 13.7----
2024-05-19 11:12 pmNNE 2.6 4.1----1017.4-- 13.7----
2024-05-19 11:06 pm NE 3.6 4.6----1017.4-- 13.7----
2024-05-19 11:00 pm NE 3.1 4.6----1017.5 +1.4 16.0 13.7----
2024-05-19 10:54 pm NE 2.6 4.1----1017.5- 16.1 13.7----
2024-05-19 10:48 pmENE 3.6 4.6----1017.4- 16.2 13.8----
2024-05-19 10:42 pmENE 3.1 4.6----1017.4- 16.3 13.8----
2024-05-19 10:36 pmENE 3.6 4.6----1017.4- 16.4 13.8----
2024-05-19 10:30 pm NE 3.1 4.6----1017.5- 16.3 13.8----
2024-05-19 10:24 pm NE 3.6 5.1----1017.4- 16.4 13.9----
2024-05-19 10:18 pm NE 3.6 4.6----1017.5- 16.4 13.9----
2024-05-19 10:12 pm NE 2.1 2.6----1017.5- 16.2 14.0----
2024-05-19 10:06 pmNNE 1.5 2.1----1017.5- 16.0 14.0----
2024-05-19 10:00 pm N 1.5 2.6----1017.5- 15.8 14.0----
2024-05-19 09:54 pm NW 1.5 2.1----1017.3- 15.5 14.1----
2024-05-19 09:48 pm- 0.0 1.0----1017.2- 15.4 14.1----
2024-05-19 09:42 pm NE 1.0 2.1----1017.1- 15.9 14.1----
2024-05-19 09:36 pm NE 2.1 2.6----1017.0- 15.9 14.1----
2024-05-19 09:30 pm E 1.5 3.1----1016.9-- 14.1----
2024-05-19 09:24 pm SE 0.5 1.5----1016.9-- 14.2----
2024-05-19 09:18 pmSSE 1.0 2.6----1016.7-- 14.2----
2024-05-19 09:12 pm SE 1.5 2.1----1016.7-- 14.3----
2024-05-19 09:06 pmESE 1.5 2.1----1016.8-- 14.3----
2024-05-19 09:00 pmESE 1.5 2.6----1016.8 +1.4- 14.4----
2024-05-19 08:54 pm SE 2.1 2.1----1016.6-- 14.4----
2024-05-19 08:48 pmESE 1.5 2.6----1016.6- 15.5 14.4----
2024-05-19 08:42 pmESE 2.1 3.1----1016.6- 15.5 14.5----
2024-05-19 08:36 pm SE 2.1 3.6----1016.6- 15.6 14.5----
2024-05-19 08:30 pm SE 2.6 4.1----1016.4- 15.7 14.5----
2024-05-19 08:24 pmESE 2.1 3.1----1016.2- 16.0 14.5----
2024-05-19 08:18 pm---------- 14.6----
2024-05-19 08:12 pm---------- 14.6----
2024-05-19 08:06 pm---------- 14.6----
2024-05-19 08:00 pmSSE 2.1 3.6----1016.1 +0.8- 14.5----
2024-05-19 07:54 pmSSE 2.6 3.6----1016.0-- 14.5----
2024-05-19 07:48 pmSSE 2.1 3.1------------
2024-05-19 07:42 pmSSE 1.0 2.1------------
2024-05-19 07:36 pm S 1.5 2.1------------
2024-05-19 07:30 pm S 1.5 2.1----1015.8- 16.7 14.9----
2024-05-19 07:24 pm S 2.1 2.6----1015.7- 15.7 15.0----
2024-05-19 07:00 pmSSW 2.1 2.1------- 15.5----
2024-05-19 06:54 pmSSW 1.5 2.1------- 15.5----
2024-05-19 06:48 pmSSW 2.1 2.1----1015.6-- 15.5----
2024-05-19 06:42 pm SW 1.5 2.1----1015.5-- 15.5----
2024-05-19 06:36 pm SW 1.5 2.1----1015.5-- 15.5----
2024-05-19 06:30 pm SW 1.5 2.1----1015.5-- 15.6----
2024-05-19 06:24 pmWSW 2.1 2.1----1015.4-- 15.5----
2024-05-19 06:18 pm-------1015.4- 15.9 15.5----
2024-05-19 06:12 pm-------1015.4- 15.8 15.5----
2024-05-19 06:06 pm-------1015.4- 15.9 15.5----
2024-05-19 06:00 pm SW 2.1 2.6----1015.4 +0.6 16.2 15.3----
2024-05-19 05:54 pm SW 2.6 2.6----1015.3- 16.0 15.2----
2024-05-19 05:48 pm SW 2.6 2.6----1015.2- 16.3 15.1----
2024-05-19 05:42 pm S 2.1 3.1----1015.2- 17.1 15.1----
2024-05-19 05:36 pm S 2.6 3.1----1015.3- 17.0 15.1----
2024-05-19 05:30 pm S 2.6 3.1----1015.5- 16.9 15.1----
2024-05-19 05:24 pm S 2.6 3.6----1015.5- 16.8 15.0----
2024-05-19 05:18 pm S 3.6 4.1----1015.4- 16.8 15.0----
2024-05-19 05:12 pm S 3.6 4.6----1015.5- 16.8 15.0----
2024-05-19 05:06 pm S 4.1 5.1----1015.4- 16.9 14.9----
2024-05-19 05:00 pm S 4.1 5.1----1015.3 +0.3 16.8 14.8----
2024-05-19 04:54 pm S 5.1 5.7----1015.2- 17.0 14.6----
2024-05-19 04:48 pm S 4.6 5.7----1015.2- 16.8 14.6----
2024-05-19 04:42 pmSSW 4.6 5.1----1015.2- 16.3 14.7----
2024-05-19 04:36 pm S 4.1 5.1----1015.2- 16.4 14.7----
2024-05-19 04:30 pm S 2.6 5.7----1015.2- 17.0 14.7----
2024-05-19 04:24 pm SW 3.6 6.2----1015.1- 16.8 14.7----
2024-05-19 04:18 pmENE 4.1 5.7----1015.0- 20.4 14.7----
2024-05-19 04:12 pm NE 4.1 5.7----1015.0- 20.4 14.6----
2024-05-19 04:06 pm E 2.1 6.7----1015.0- 19.6 14.6----
2024-05-19 04:00 pm NE 3.6 6.7----1014.9 -0.4- 14.6----
2024-05-19 03:54 pm NE 5.1 7.2----1014.9-- 14.5----
2024-05-19 03:48 pmNNE 5.7 7.2----1014.9-- 14.4----
2024-05-19 03:42 pmNNE 6.2 8.8----1014.9-- 14.3----
2024-05-19 03:36 pm NE 5.7 7.7----1014.9-- 14.3----
2024-05-19 03:30 pm NE 6.7 7.7----1014.8- 20.1 14.3----
2024-05-19 03:24 pm NE 6.2 8.2----1014.9- 19.9 14.3----
2024-05-19 03:18 pmNNE 8.2 9.3----1014.8- 19.9 14.3----
2024-05-19 03:12 pmNNE 6.2 8.8----1014.8- 20.0 14.2----
2024-05-19 03:06 pm NE 5.7 9.3----1014.9- 20.3 14.1----
2024-05-19 03:00 pmNNE 6.7 9.3----1014.8 -1.2- 14.1----
2024-05-19 02:54 pmNNE 7.2 9.8----1014.9-- 14.0----
2024-05-19 02:48 pm NE 6.7 8.8----1014.9- 19.9 13.9----
2024-05-19 02:42 pm NE 7.7 9.3----1015.0- 20.1 13.8----
2024-05-19 02:36 pmNNE 8.2 9.8----1015.0- 19.9 13.8----
2024-05-19 02:30 pmNNE 7.2 8.8----1015.1- 19.9 13.8----
2024-05-19 02:24 pmNNE 6.7 9.3----1015.0- 19.7 13.7----
2024-05-19 02:18 pmNNE 6.7 9.3----1015.0- 19.9 13.7----
2024-05-19 02:12 pmNNE 7.2 8.8----1015.0- 19.8 13.7----
2024-05-19 02:06 pmNNE 7.2 9.8----1015.0- 19.4 13.7----
2024-05-19 02:00 pmNNE 7.7 9.8----1015.0 -0.7 19.6 13.7----
2024-05-19 01:54 pmNNE 5.7 7.7----1015.0- 19.5 13.7----
2024-05-19 01:48 pmNNE 7.7 9.8----1015.1- 19.6 13.7----
2024-05-19 01:42 pmNNE 6.2 9.8----1015.1- 19.2 13.7----
2024-05-19 01:36 pmNNE 6.2 9.3----1015.1- 19.5 13.7----
2024-05-19 01:30 pmNNE 6.7 9.3----1015.1- 19.2 13.7----
2024-05-19 01:24 pmNNE 6.2 9.8----1015.2- 19.4 13.7----
2024-05-19 01:18 pmNNE 7.7 9.3----1015.2-- 13.7----
2024-05-19 01:12 pm NE 5.7 8.8----1015.3-- 13.7----
2024-05-19 01:06 pm NE 6.7 10.8----1015.3-- 13.7----
2024-05-19 01:00 pmNNE 8.8 10.8----1015.3 -0.7- 13.7----
2024-05-19 12:54 pmNNE 7.7 11.3----1015.3-- 13.7----